Location: Bailleul
(50.3375°N, 2.8513°E)
Time: 03:42:52
(UTC+00:00)

CZ-2D R/B - Pass Details

Date: 19 April 2021
Orbit: 792 x 844 km, 98.7° (Epoch: 09 May)

Event Time Altitude Azimuth Distance (km) Brightness Sun altitude
Rises 23:49:02 0° 30° (NNE) 3,416 6.3 -28.1°
Reaches altitude 10° 23:52:50 10° 57° (ENE) 2,474 5.0 -28.1°
Maximum altitude 23:55:24 13° 85° (E) 2,238 4.5 -28.1°
Enters shadow 23:56:22 13° 96° (E) 2,270 4.4 -28.1°
